User: anonymous   Login
Location: Budapest
(47.4979°N, 19.0402°E)
Time: 06:28:38
(UTC+01:00)
Language:

Tiangong 1 - Orbit

View from above orbital plane
View from above orbital plane
View from above satellite
View from above satellite

Ground track
Ground track

The orbit data is extracted from the following two-line orbital elements,

1 37820U 11053A   17328.82741350  .00069955  10075-4  20091-3 0  9997
2 37820  42.7547 288.1943 0018215 153.7777 291.0848 15.92578146353450
Epoch (UTC): 24 November 2017 19:51:28
Eccentricity: 0.0018215
inclination: 42.7547°
perigee height: 283 km
apogee height: 307 km
right ascension of ascending node: 288.1943°
argument of perigee: 153.7777°
revolutions per day: 15.92578146
mean anomaly at epoch: 291.0848°
orbit number at epoch: 35345

The dashed part of the orbit path shows where the satellite is in the earth's shadow,  

DLR